Regional Weather Roundup
Issued by NWS Northern Indiana

Home | Current Version | Previous Version | Text Only | Print | Product List | Glossary Off
Versions: 1 2 3 4 5 6 7 8 9 10 11 12 13 14 15 16 17 18 19 20 21 22 23 24 25 26 27 28 29 30 31 32 33 34 35 36 37 38 39 40 41 42 43 44 45 46 47 48 49 50

000
ASUS43 KIWX 251110
RWRIWX

KIWX WEATHER ROUNDUP
NATIONAL WEATHER SERVICE NORTHERN INDIANA
700 AM EDT WED APR 25 2018

NOTE: "FAIR" INDICATES FEW OR NO CLOUDS BELOW 12,000 FEET WITH NO
SIGNIFICANT WEATHER AND/OR OBSTRUCTIONS TO VISIBILITY.

* THESE STATIONS ARE NOT UNDER NWS QUALITY CONTROL. THEY ALSO MAY NOT
  REPORT WEATHER SUCH AS PRECIPITATION OR FOG.

INZ001>027-251200-
NORTHERN INDIANA

CITY           SKY/WX    TMP DP  RH WIND       PRES   REMARKS
VALPARAISO     CLOUDY    44  37  76 N10G17    30.03R
MICHIGAN CITY* CLOUDY    41  36  81 N10G17    30.04R
LAPORTE*       CLOUDY    43  38  83 N9        30.01R
KNOX*          CLOUDY    43  41  93 NW8       30.00R
SOUTH BEND     CLOUDY    46  41  82 N8        29.99R
ELKHART*       CLOUDY    50  48  93 NW9       29.97
GOSHEN         MOCLDY    52  50  93 N6        29.96R
MONTICELLO*    CLOUDY    44  42  95 NW10      29.99R FOG
LOGANSPORT*    CLOUDY    46  46 100 NW8       29.97S FOG
ROCHESTER*     CLOUDY    50  50 100 N9        29.97R FOG
WARSAW*        FAIR      50  50 100 N7        29.95R
AUBURN*        CLOUDY    52  50  93 NW6       29.95R
FORT WAYNE     CLOUDY    52  50  93 NW8       29.94R FOG
HUNTINGTON*    CLOUDY    51  50  95 N7        29.94R
PERU/GRISSOM   MOCLDY    50  50 100 NW9       29.94S FOG
MARION*        CLOUDY    51  50  95 N7        29.95R FOG

$$
INZ028>050-251200-
CENTRAL INDIANA

CITY           SKY/WX    TMP DP  RH WIND       PRES   REMARKS
LAFAYETTE      CLOUDY    45  45 100 NW12      30.00R FOG
KOKOMO*        FAIR      52  50  93 N9        29.95S FOG
MUNCIE*        CLOUDY    52  50  93 N7        29.93R
INDIANAPOLIS   CLOUDY    50  49  96 N8        29.95R FOG

$$
MIZ043>046-050>051-056>058-064>065-071>073-077>080-251200-
SOUTHWEST LOWER MICHIGAN

CITY           SKY/WX    TMP DP  RH WIND       PRES   REMARKS
BATTLE CREEK   MOCLDY    46  40  79 N9        29.98R
BENTON HARBOR  FAIR      43  37  79 VRB7      30.02R
COLDWATER*     CLOUDY    51  49  93 N9G17     29.95R
HILLSDALE*     DRIZZLE   50  46  87 N14       29.92R
HOLLAND        FAIR      45  32  60 N3        30.03R
GRAND RAPIDS   MOCLDY    44  34  67 N10       30.00R
KALAMAZOO      CLOUDY    47  41  80 N13       29.98S
STURGIS*       CLOUDY    52  51  93 N8        29.94S
THREE RIVERS*  CLOUDY    51  46  86 N7        29.97R

$$
OHZ001>008-015>018-024>025-251200-
NORTHWEST OHIO

CITY           SKY/WX    TMP DP  RH WIND       PRES   REMARKS
WAUSEON*       CLOUDY    52  52 100 N6        29.91R FOG
DEFIANCE       CLOUDY    51  50  96 NW7       29.92R
FINDLAY        CLOUDY    50  47  89 N8        29.89R FOG
TOLEDO EXPRESS CLOUDY    51  51 100 N8        29.90R FOG
TOLEDO METCALF FOG       49  48  97 CALM      29.90S VSB 1/2
LIMA           LGT RAIN  50  50 100 N7        29.90R FOG

$$
AND FOR LAKE MICHIGAN COASTAL AND OPEN LAKE BUOY OBSERVATIONS

STATION/POSITION TEMP    WIND        PRES    VSBY  WAVE
                 AIR SEA DIR/SP/G                  HT/PER
                 (F)     (DEG/KT/KT) (MB)    (MI)  (FT/S)
CALUMET HARBOR    40     330/ 18/ 24 1017.5R
MICHIGAN CITY     41     350/ 12/ 16   N/A
BURNS HARBOR      41     360/  9/ 10 1018.3R
SAINT JOSEPH      43      10/ 13/ 20 1017.6
4 MI NW BRIDGMAN  42 42   10/ 17/ 21 1017.3          4/ 5

$$
&&




USA.gov is the U.S. government's official web portal to all federal, state and local government web resources and services.